Time,TemperatureF,DewpointF,PressureIn,WindDirection,WindDirectionDegrees,WindSpeedMPH,WindSpeedGustMPH,Humidity,HourlyPrecipIn,Conditions,Clouds,dailyrainin,SolarRadiationWatts/m^2,SoftwareType,DateUTC
2013-05-26 00:01:00,73.0,13.0,-100.00,North,11,1.0,14.0,10,0.00,,,0.00,0.000000,,2013-05-26 06:01:00,
2013-05-26 00:12:00,73.0,13.0,-100.00,North,11,1.0,14.0,10,0.00,,,0.00,0.000000,,2013-05-26 06:12:00,
2013-05-26 00:22:00,73.0,13.0,-100.00,North,11,1.0,14.0,10,0.00,,,0.00,0.000000,,2013-05-26 06:22:00,
2013-05-26 00:52:00,71.0,9.0,-100.00,East,80,0.0,11.0,9,0.00,,,0.00,0.000000,,2013-05-26 06:52:00,
2013-05-26 01:01:00,71.0,9.0,-100.00,East,80,0.0,11.0,9,0.00,,,0.00,0.000000,,2013-05-26 07:01:00,
2013-05-26 01:11:00,71.0,9.0,-100.00,East,80,0.0,11.0,9,0.00,,,0.00,0.000000,,2013-05-26 07:11:00,
2013-05-26 01:21:00,71.0,9.0,-100.00,East,80,0.0,11.0,9,0.00,,,0.00,0.000000,,2013-05-26 07:21:00,
2013-05-26 01:52:00,70.0,11.0,-100.00,NNW,331,0.0,6.0,10,0.00,,,0.00,0.000000,,2013-05-26 07:52:00,
2013-05-26 02:01:00,70.0,11.0,-100.00,NNW,331,0.0,6.0,10,0.00,,,0.00,0.000000,,2013-05-26 08:01:00,
2013-05-26 02:12:00,70.0,11.0,-100.00,NNW,331,0.0,6.0,10,0.00,,,0.00,0.000000,,2013-05-26 08:12:00,
2013-05-26 02:21:00,70.0,11.0,-100.00,NNW,331,0.0,6.0,10,0.00,,,0.00,0.000000,,2013-05-26 08:21:00,
2013-05-26 02:53:00,70.0,9.0,-100.00,South,189,1.0,6.0,9,0.00,,,0.00,0.000000,,2013-05-26 08:53:00,
2013-05-26 03:01:00,70.0,9.0,-100.00,South,189,1.0,6.0,9,0.00,,,0.00,0.000000,,2013-05-26 09:01:00,
2013-05-26 03:11:00,70.0,9.0,-100.00,South,189,1.0,6.0,9,0.00,,,0.00,0.000000,,2013-05-26 09:11:00,
2013-05-26 03:21:00,70.0,9.0,-100.00,South,189,1.0,6.0,9,0.00,,,0.00,0.000000,,2013-05-26 09:21:00,
2013-05-26 03:53:00,66.0,10.0,-100.00,East,100,5.0,9.0,11,0.00,,,0.00,0.000000,,2013-05-26 09:53:00,
2013-05-26 04:02:00,66.0,10.0,-100.00,East,100,5.0,9.0,11,0.00,,,0.00,0.000000,,2013-05-26 10:02:00,
2013-05-26 04:12:00,66.0,10.0,-100.00,East,100,5.0,9.0,11,0.00,,,0.00,0.000000,,2013-05-26 10:12:00,
2013-05-26 04:23:00,66.0,10.0,-100.00,East,100,5.0,9.0,11,0.00,,,0.00,0.000000,,2013-05-26 10:23:00,
2013-05-26 04:52:00,66.0,8.0,-100.00,NE,49,0.0,7.0,10,0.00,,,0.00,0.000000,,2013-05-26 10:52:00,
2013-05-26 05:03:00,66.0,8.0,-100.00,NE,49,0.0,7.0,10,0.00,,,0.00,0.000000,,2013-05-26 11:03:00,
2013-05-26 05:11:00,66.0,8.0,-100.00,NE,49,0.0,7.0,10,0.00,,,0.00,0.000000,,2013-05-26 11:11:00,
2013-05-26 05:22:00,66.0,8.0,-100.00,NE,49,0.0,7.0,10,0.00,,,0.00,0.000000,,2013-05-26 11:22:00,
2013-05-26 05:52:00,66.0,6.0,-100.00,NNE,12,0.0,5.0,9,0.00,,,0.00,0.000000,,2013-05-26 11:52:00,
2013-05-26 06:02:00,66.0,6.0,-100.00,NNE,12,0.0,5.0,9,0.00,,,0.00,0.000000,,2013-05-26 12:02:00,
2013-05-26 06:12:00,66.0,6.0,-100.00,NNE,12,0.0,5.0,9,0.00,,,0.00,0.000000,,2013-05-26 12:12:00,
2013-05-26 06:21:00,66.0,6.0,-100.00,NNE,12,0.0,5.0,9,0.00,,,0.00,0.000000,,2013-05-26 12:21:00,
2013-05-26 06:52:00,66.0,8.0,-100.00,ESE,108,3.0,4.0,10,0.00,,,0.00,3.000000,,2013-05-26 12:52:00,
2013-05-26 07:02:00,66.0,8.0,-100.00,ESE,108,3.0,4.0,10,0.00,,,0.00,3.000000,,2013-05-26 13:02:00,
2013-05-26 07:11:00,66.0,8.0,-100.00,ESE,108,3.0,4.0,10,0.00,,,0.00,3.000000,,2013-05-26 13:11:00,
2013-05-26 07:21:00,66.0,8.0,-100.00,ESE,108,3.0,4.0,10,0.00,,,0.00,3.000000,,2013-05-26 13:21:00,
2013-05-26 07:52:00,69.0,10.0,-100.00,East,101,3.0,6.0,10,0.00,,,0.00,65.000000,,2013-05-26 13:52:00,
2013-05-26 08:02:00,69.0,10.0,-100.00,East,101,3.0,6.0,10,0.00,,,0.00,65.000000,,2013-05-26 14:02:00,
2013-05-26 08:11:00,69.0,10.0,-100.00,East,101,3.0,6.0,10,0.00,,,0.00,65.000000,,2013-05-26 14:11:00,
2013-05-26 08:21:00,69.0,10.0,-100.00,East,101,3.0,6.0,10,0.00,,,0.00,65.000000,,2013-05-26 14:21:00,
2013-05-26 08:52:00,76.0,7.0,-100.00,SE,142,1.0,6.0,7,0.00,,,0.00,401.000000,,2013-05-26 14:52:00,
2013-05-26 09:01:00,76.0,7.0,-100.00,SE,142,1.0,6.0,7,0.00,,,0.00,401.000000,,2013-05-26 15:01:00,
2013-05-26 09:12:00,76.0,7.0,-100.00,SE,142,1.0,6.0,7,0.00,,,0.00,401.000000,,2013-05-26 15:12:00,
2013-05-26 09:22:00,76.0,7.0,-100.00,SE,142,1.0,6.0,7,0.00,,,0.00,401.000000,,2013-05-26 15:22:00,
2013-05-26 09:53:00,79.0,10.0,-100.00,SW,234,6.0,9.0,7,0.00,,,0.00,671.000000,,2013-05-26 15:53:00,
2013-05-26 10:03:00,79.0,10.0,-100.00,SW,234,6.0,9.0,7,0.00,,,0.00,671.000000,,2013-05-26 16:03:00,
2013-05-26 10:12:00,79.0,10.0,-100.00,SW,234,6.0,9.0,7,0.00,,,0.00,671.000000,,2013-05-26 16:12:00,
2013-05-26 10:23:00,79.0,10.0,-100.00,SW,234,6.0,9.0,7,0.00,,,0.00,671.000000,,2013-05-26 16:23:00,
2013-05-26 10:53:00,79.0,20.0,-100.00,SSW,212,8.0,17.0,11,0.00,,,0.00,915.000000,,2013-05-26 16:53:00,
2013-05-26 11:02:00,79.0,20.0,-100.00,SSW,212,8.0,17.0,11,0.00,,,0.00,915.000000,,2013-05-26 17:02:00,
2013-05-26 11:11:00,79.0,20.0,-100.00,SSW,212,8.0,17.0,11,0.00,,,0.00,915.000000,,2013-05-26 17:11:00,
2013-05-26 11:22:00,79.0,20.0,-100.00,SSW,212,8.0,17.0,11,0.00,,,0.00,915.000000,,2013-05-26 17:22:00,
2013-05-26 11:52:00,79.0,18.0,-100.00,WSW,245,12.0,19.0,10,0.00,,,0.00,1106.000000,,2013-05-26 17:52:00,
2013-05-26 12:01:00,79.0,18.0,-100.00,WSW,245,12.0,19.0,10,0.00,,,0.00,1106.000000,,2013-05-26 18:01:00,
2013-05-26 12:12:00,79.0,18.0,-100.00,WSW,245,12.0,19.0,10,0.00,,,0.00,1106.000000,,2013-05-26 18:12:00,
2013-05-26 12:21:00,79.0,18.0,-100.00,WSW,245,12.0,19.0,10,0.00,,,0.00,1106.000000,,2013-05-26 18:21:00,
2013-05-26 12:52:00,83.0,21.0,-100.00,SW,218,13.0,21.0,10,0.00,,,0.00,1221.000000,,2013-05-26 18:52:00,
2013-05-26 13:01:00,83.0,21.0,-100.00,SW,218,13.0,21.0,10,0.00,,,0.00,1221.000000,,2013-05-26 19:01:00,
2013-05-26 13:11:00,83.0,21.0,-100.00,SW,218,13.0,21.0,10,0.00,,,0.00,1221.000000,,2013-05-26 19:11:00,
2013-05-26 13:22:00,83.0,21.0,-100.00,SW,218,13.0,21.0,10,0.00,,,0.00,1221.000000,,2013-05-26 19:22:00,
2013-05-26 13:52:00,84.0,16.0,-100.00,SW,234,15.0,29.0,8,0.00,,,0.00,1264.000000,,2013-05-26 19:52:00,
2013-05-26 14:02:00,84.0,16.0,-100.00,SW,234,15.0,29.0,8,0.00,,,0.00,1264.000000,,2013-05-26 20:02:00,
2013-05-26 14:11:00,84.0,16.0,-100.00,SW,234,15.0,29.0,8,0.00,,,0.00,1264.000000,,2013-05-26 20:11:00,
2013-05-26 14:22:00,84.0,16.0,-100.00,SW,234,15.0,29.0,8,0.00,,,0.00,1264.000000,,2013-05-26 20:22:00,
2013-05-26 14:52:00,85.0,17.0,-100.00,SW,214,13.0,30.0,8,0.00,,,0.00,1233.000000,,2013-05-26 20:52:00,
2013-05-26 15:02:00,85.0,17.0,-100.00,SW,214,13.0,30.0,8,0.00,,,0.00,1233.000000,,2013-05-26 21:02:00,
2013-05-26 15:11:00,85.0,17.0,-100.00,SW,214,13.0,30.0,8,0.00,,,0.00,1233.000000,,2013-05-26 21:11:00,
2013-05-26 15:22:00,85.0,17.0,-100.00,SW,214,13.0,30.0,8,0.00,,,0.00,1233.000000,,2013-05-26 21:22:00,
2013-05-26 15:53:00,85.0,14.0,-100.00,SW,230,16.0,30.0,7,0.00,,,0.00,1132.000000,,2013-05-26 21:53:00,
2013-05-26 16:03:00,85.0,14.0,-100.00,SW,230,16.0,30.0,7,0.00,,,0.00,1132.000000,,2013-05-26 22:03:00,
2013-05-26 16:12:00,85.0,14.0,-100.00,SW,230,16.0,30.0,7,0.00,,,0.00,1132.000000,,2013-05-26 22:12:00,
2013-05-26 16:23:00,85.0,14.0,-100.00,SW,230,16.0,30.0,7,0.00,,,0.00,1132.000000,,2013-05-26 22:23:00,
2013-05-26 16:53:00,84.0,13.0,-100.00,SW,232,15.0,28.0,7,0.00,,,0.00,860.000000,,2013-05-26 22:53:00,
2013-05-26 17:02:00,84.0,13.0,-100.00,SW,232,15.0,28.0,7,0.00,,,0.00,860.000000,,2013-05-26 23:02:00,
2013-05-26 17:12:00,84.0,13.0,-100.00,SW,232,15.0,28.0,7,0.00,,,0.00,860.000000,,2013-05-26 23:12:00,
2013-05-26 17:22:00,84.0,13.0,-100.00,SW,232,15.0,28.0,7,0.00,,,0.00,860.000000,,2013-05-26 23:22:00,
2013-05-26 17:52:00,86.0,7.0,-100.00,SW,233,17.0,33.0,5,0.00,,,0.00,635.000000,,2013-05-26 23:52:00,
2013-05-26 18:02:00,86.0,7.0,-100.00,SW,233,17.0,33.0,5,0.00,,,0.00,635.000000,,2013-05-27 00:02:00,
2013-05-26 18:11:00,86.0,7.0,-100.00,SW,233,17.0,33.0,5,0.00,,,0.00,635.000000,,2013-05-27 00:11:00,
2013-05-26 18:21:00,86.0,7.0,-100.00,SW,233,17.0,33.0,5,0.00,,,0.00,635.000000,,2013-05-27 00:21:00,
2013-05-26 18:52:00,84.0,6.0,-100.00,SW,235,16.0,28.0,5,0.00,,,0.00,397.000000,,2013-05-27 00:52:00,
2013-05-26 19:01:00,84.0,6.0,-100.00,SW,235,16.0,28.0,5,0.00,,,0.00,397.000000,,2013-05-27 01:01:00,
2013-05-26 19:11:00,84.0,6.0,-100.00,SW,235,16.0,28.0,5,0.00,,,0.00,397.000000,,2013-05-27 01:11:00,
2013-05-26 19:22:00,84.0,6.0,-100.00,SW,235,16.0,28.0,5,0.00,,,0.00,397.000000,,2013-05-27 01:22:00,
2013-05-26 19:52:00,82.0,4.0,-100.00,WNW,287,12.0,29.0,5,0.00,,,0.00,230.000000,,2013-05-27 01:52:00,
2013-05-26 20:02:00,82.0,4.0,-100.00,WNW,287,12.0,29.0,5,0.00,,,0.00,230.000000,,2013-05-27 02:02:00,
2013-05-26 20:11:00,82.0,4.0,-100.00,WNW,287,12.0,29.0,5,0.00,,,0.00,230.000000,,2013-05-27 02:11:00,
2013-05-26 20:22:00,82.0,4.0,-100.00,WNW,287,12.0,29.0,5,0.00,,,0.00,230.000000,,2013-05-27 02:22:00,
2013-05-26 20:52:00,78.0,2.0,-100.00,WNW,293,5.0,24.0,5,0.00,,,0.00,18.000000,,2013-05-27 02:52:00,
2013-05-26 21:02:00,78.0,2.0,-100.00,WNW,293,5.0,24.0,5,0.00,,,0.00,18.000000,,2013-05-27 03:02:00,
2013-05-26 21:11:00,78.0,2.0,-100.00,WNW,293,5.0,24.0,5,0.00,,,0.00,18.000000,,2013-05-27 03:11:00,
2013-05-26 21:21:00,78.0,2.0,-100.00,WNW,293,5.0,24.0,5,0.00,,,0.00,18.000000,,2013-05-27 03:21:00,
2013-05-26 21:53:00,74.0,3.0,-100.00,NW,322,4.0,13.0,6,0.00,,,0.00,0.000000,,2013-05-27 03:53:00,
2013-05-26 22:02:00,74.0,3.0,-100.00,NW,322,4.0,13.0,6,0.00,,,0.00,0.000000,,2013-05-27 04:02:00,
2013-05-26 22:12:00,74.0,3.0,-100.00,NW,322,4.0,13.0,6,0.00,,,0.00,0.000000,,2013-05-27 04:12:00,
2013-05-26 22:23:00,74.0,3.0,-100.00,NW,322,4.0,13.0,6,0.00,,,0.00,0.000000,,2013-05-27 04:23:00,
2013-05-26 22:52:00,75.0,3.0,-100.00,NW,325,4.0,11.0,6,0.00,,,0.00,0.000000,,2013-05-27 04:52:00,
2013-05-26 23:02:00,75.0,3.0,-100.00,NW,325,4.0,11.0,6,0.00,,,0.00,0.000000,,2013-05-27 05:02:00,
2013-05-26 23:12:00,75.0,3.0,-100.00,NW,325,4.0,11.0,6,0.00,,,0.00,0.000000,,2013-05-27 05:12:00,
2013-05-26 23:22:00,75.0,3.0,-100.00,NW,325,4.0,11.0,6,0.00,,,0.00,0.000000,,2013-05-27 05:22:00,
2013-05-26 23:52:00,71.0,1.0,-100.00,South,176,0.0,8.0,6,0.00,,,0.00,0.000000,,2013-05-27 05:52:00,